ITASAT

Last updated on Mon Sep 15 2025 00:03:09 GMT+0000 (Coordinated Universal Time)

1 43786U 18099AE 25257.14058325 .00004712 00000+0 26193-3 0 9991 2 43786 97.4472 309.3727 0012879 227.1337 132.8814 15.14098460371068
UTC large
Height (km)
Speed (km/s)
/
Latitude / Longitude
Inclination (degrees)
Orbital Period (minutes)
Azimuth
Elevation
Range (km)
Doppler Factor

Next 0 passes for location: London (51.5072 / 0.1276)

Sorry there are no passes over London.